"Pseudo-MPEC" for orA3067

Created 2026 Mar 13 4:35:25 UT using Find_Orb

Click here for an explanation of pseudo-MPECs

 
 Astrometry: 
     orA3067*KB2026 03 10.92829 09 04 34.08 +24 14 26.1    ~3BC5 20.5 gZNEOCPJ43
     orA3067 KB2026 03 10.93539 09 04 33.28 +24 14 13.5    ~3BC5 20.5 gZNEOCPJ43
     orA3067 KB2026 03 10.94247 09 04 32.34 +24 14 04.3    ~3BC5       ZNEOCPJ43

Station data:
(J43) Oukaïmeden Observatory, Marrakech  (N31.206437 W7.866460)  Morocco.
   Observer C. Rinner. Measurers C. Rinner, M. Ory. 0.5-m f/3 reflector + CCD.

Orbital elements:  orA3067
   Perihelion 2026 Nov 19.059292 +/- 109 TT =  1:25:22.8 (JD 2461363.559292)
Epoch 2026 Mar 11.0 TT = JDT 2461110.5   Earth MOID: 0.0568      AutoNEOCP
M 191.806914612 +/- 130             (J2000 ecliptic)
n   0.664639041 +/- 0.473           Peri.  344.693726 +/- 90
a   1.300405558 +/- 0.617           Node   341.661776 +/- 60
e   0.18497759 +/- 0.281            Incl.   24.812807 +/- 24
P   1.483/541.637d         H 19.09  G  0.15   U 12.2  SR
q 1.059859667 +/- 0.698    Q 1.540951448 +/- 28.1
From 3 observations 2026 Mar. 10 (20.4 min); mean residual 0".65
Residuals in arcseconds: 
260310 J43  .32-  .56+    260310 J43  .65+  1.1-    260310 J43  .33-  .57+    

Ephemerides (geocentric):
Date (UTC) HH   RA             Dec           delta  r     elong  mag " sig PA
---- --------  ------------   ------------  ------ ------ -----  --- --------
2026 03 13 05  09 00 21.371   +23 16 06.39  .64507 1.5364 138.2 20.2 1260 111
2026 03 13 06  09 00 17.023   +23 15 02.54  .64530 1.5363 138.2 20.2 1281 111
2026 03 13 07  09 00 12.684   +23 13 58.70  .64553 1.5363 138.1 20.2 1303 112
2026 03 13 08  09 00 08.356   +23 12 54.87  .64577 1.5363 138.1 20.2 1325 112
2026 03 13 09  09 00 04.037   +23 11 51.04  .64600 1.5363 138.0 20.2 1347 112
2026 03 13 10  08 59 59.727   +23 10 47.22  .64623 1.5363 138.0 20.2 1368 112
2026 03 13 11  08 59 55.427   +23 09 43.41  .64647 1.5362 137.9 20.2 1390 112
2026 03 13 12  08 59 51.137   +23 08 39.60  .64670 1.5362 137.9 20.2 1412 113
2026 03 13 13  08 59 46.857   +23 07 35.81  .64694 1.5362 137.8 20.2 1434 113
2026 03 13 14  08 59 42.586   +23 06 32.02  .64717 1.5362 137.8 20.2 1456 113
2026 03 13 15  08 59 38.325   +23 05 28.23  .64741 1.5362 137.7 20.3 1478 113
2026 03 13 16  08 59 34.073   +23 04 24.46  .64764 1.5361 137.7 20.3 1501 113
2026 03 13 17  08 59 29.831   +23 03 20.69  .64788 1.5361 137.7 20.3 1523 114
2026 03 13 18  08 59 25.599   +23 02 16.93  .64811 1.5361 137.6 20.3 1545 114
2026 03 13 19  08 59 21.376   +23 01 13.18  .64835 1.5361 137.6 20.3 1567 114
2026 03 13 20  08 59 17.162   +23 00 09.44  .64859 1.5361 137.5 20.3 1590 114
2026 03 13 21  08 59 12.959   +22 59 05.71  .64882 1.5360 137.5 20.3 1612 114
2026 03 13 22  08 59 08.765   +22 58 01.98  .64906 1.5360 137.4 20.3 1635 114
2026 03 13 23  08 59 04.580   +22 56 58.27  .64930 1.5360 137.4 20.3 1657 115
2026 03 14 00  08 59 00.406   +22 55 54.56  .64953 1.5360 137.3 20.3 1680 115
2026 03 14 01  08 58 56.240   +22 54 50.86  .64977 1.5360 137.3 20.3 1703 115
2026 03 14 02  08 58 52.085   +22 53 47.17  .65001 1.5359 137.2 20.3 1725 115
2026 03 14 03  08 58 47.938   +22 52 43.49  .65025 1.5359 137.2 20.3 1748 115
2026 03 14 04  08 58 43.802   +22 51 39.82  .65049 1.5359 137.1 20.3 1771 115
2026 03 14 05  08 58 39.675   +22 50 36.15  .65073 1.5359 137.1 20.3 1794 116
2026 03 14 06  08 58 35.558   +22 49 32.50  .65097 1.5359 137.0 20.3 1817 116
2026 03 14 07  08 58 31.450   +22 48 28.85  .65121 1.5358 137.0 20.3 1840 116
2026 03 14 08  08 58 27.351   +22 47 25.22  .65145 1.5358 136.9 20.3 1863 116
2026 03 14 09  08 58 23.263   +22 46 21.59  .65169 1.5358 136.9 20.3 1886 116
2026 03 14 10  08 58 19.184   +22 45 17.98  .65193 1.5358 136.8 20.3 1910 116
2026 03 14 11  08 58 15.114   +22 44 14.37  .65217 1.5358 136.8 20.3 1933 117
2026 03 14 12  08 58 11.054   +22 43 10.78  .65241 1.5357 136.7 20.3 1956 117
2026 03 14 13  08 58 07.003   +22 42 07.19  .65265 1.5357 136.7 20.3 1980 117
2026 03 14 14  08 58 02.962   +22 41 03.62  .65289 1.5357 136.6 20.3 2003 117
2026 03 14 15  08 57 58.931   +22 40 00.05  .65314 1.5357 136.6 20.3 2027 117
2026 03 14 16  08 57 54.909   +22 38 56.50  .65338 1.5357 136.5 20.3 2050 117
2026 03 14 17  08 57 50.896   +22 37 52.95  .65362 1.5356 136.5 20.3 2074 118
2026 03 14 18  08 57 46.894   +22 36 49.42  .65386 1.5356 136.4 20.3 2098 118
2026 03 14 19  08 57 42.900   +22 35 45.89  .65411 1.5356 136.4 20.3 2122 118
2026 03 14 20  08 57 38.916   +22 34 42.38  .65435 1.5356 136.3 20.3 2146 118
2026 03 14 21  08 57 34.942   +22 33 38.88  .65460 1.5356 136.3 20.3 2170 118
2026 03 14 22  08 57 30.977   +22 32 35.39  .65484 1.5355 136.2 20.3 2194 118
2026 03 14 23  08 57 27.022   +22 31 31.91  .65508 1.5355 136.2 20.3 2218 118
2026 03 15 00  08 57 23.076   +22 30 28.44  .65533 1.5355 136.1 20.3 2242 119
2026 03 15 01  08 57 19.139   +22 29 24.98  .65557 1.5355 136.1 20.3 2266 119
2026 03 15 02  08 57 15.212   +22 28 21.54  .65582 1.5355 136.0 20.3 2291 119
2026 03 15 03  08 57 11.295   +22 27 18.10  .65607 1.5354 136.0 20.3 2315 119
2026 03 15 04  08 57 07.387   +22 26 14.68  .65631 1.5354 135.9 20.3 2340 119